Location: Toronto
(43.6672°N, 79.4170°W)
Time: 16:19:58
(UTC-04:00)

ISS - Visible Passes

Search period start: 26 May 2016 00:00
Search period end: 05 June 2016 00:00
Orbit: 402 x 404 km, 51.6° (Epoch: 26 May)

Date Brightness Start Highest point End Pass type
(mag) Time Alt. Az. Time Alt. Az. Time Alt. Az.
26 May -0.6 01:36:33 10° WNW 01:39:05 21° N 01:41:39 10° NE visible
26 May -0.9 03:13:32 10° NW 03:16:18 24° NNE 03:19:03 10° ENE visible
26 May -3.4 04:49:48 10° WNW 04:53:04 90° WSW 04:56:19 10° ESE visible
26 May -1.5 21:31:37 10° SSE 21:33:16 13° SE 21:34:56 10° E visible
26 May -3.4 23:06:02 10° WSW 23:09:18 82° NW 23:12:34 10° ENE visible
27 May -0.9 00:43:23 10° WNW 00:46:06 24° NNW 00:48:49 10° NE visible
27 May -0.6 02:20:44 10° NW 02:23:19 21° N 02:25:53 10° ENE visible
27 May -2.5 03:57:03 10° NW 04:00:16 53° NNE 04:03:28 10° ESE visible
27 May -3.3 22:13:21 10° SW 22:16:33 54° SE 22:19:45 10° ENE visible
27 May -1.3 23:50:12 10° W 23:53:08 30° NNW 23:56:05 10° NE visible
28 May -0.5 01:27:48 10° NW 01:30:17 20° N 01:32:46 10° NE visible
28 May -1.6 03:04:20 10° NW 03:07:23 35° NNE 03:10:25 10° E visible
28 May -2.9 04:40:46 10° WNW 04:43:52 40° SW 04:46:56 10° SSE visible
28 May -2.4 21:21:00 10° SSW 21:23:52 29° SE 21:26:45 10° ENE visible
28 May -2.0 22:57:05 10° W 23:00:13 43° NNW 23:03:22 10° NE visible
29 May -0.5 00:34:43 10° NW 00:37:14 20° N 00:39:46 10° NE visible
29 May -1.0 02:11:36 10° NW 02:14:26 26° NNE 02:17:15 10° ENE visible
29 May -3.5 03:47:52 10° WNW 03:51:08 76° SW 03:54:23 10° SE visible
29 May -3.0 22:04:05 10° WSW 22:07:20 70° NNW 22:10:36 10° NE visible
29 May -0.7 23:41:32 10° WNW 23:44:12 22° N 23:46:52 10° NE visible
30 May -0.7 01:18:47 10° NW 01:21:25 22° N 01:24:02 10° ENE visible
30 May -2.9 02:55:04 10° NW 02:58:19 61° NNE 03:01:33 10° ESE visible
30 May -1.9 04:32:08 10° W 04:34:28 18° SW 04:36:48 10° S visible
30 May -1.1 22:48:18 10° WNW 22:51:11 28° NNW 22:54:03 10° NE visible
31 May -0.5 00:25:51 10° NW 00:28:20 20° N 00:30:51 10° NE visible
31 May -1.9 02:02:19 10° NW 02:05:25 39° NNE 02:05:46 37° NE visible
31 May -1.7 21:55:07 10° W 21:58:12 38° NNW 22:01:18 10° NE visible
31 May -0.5 23:32:46 10° NW 23:35:16 20° N 23:37:46 10° NE visible
01 Jun -1.3 01:09:32 10° NW 01:12:26 28° NNE 01:13:17 24° NE visible
01 Jun -0.7 22:39:34 10° WNW 22:42:11 22° N 22:44:48 10° NE visible
02 Jun -0.9 00:16:43 10° NW 00:19:23 23° N 00:21:32 13° ENE visible
02 Jun -1.1 01:52:58 10° NW 01:54:05 20° NW 01:54:05 20° NW visible
02 Jun -1.0 21:46:17 10° WNW 21:49:07 26° NNW 21:51:56 10° NE visible
02 Jun -0.7 23:23:46 10° NW 23:26:18 20° N 23:28:49 10° NE visible
03 Jun -1.8 01:00:10 10° NW 01:02:35 36° NNW 01:02:35 36° NNW visible
03 Jun -0.6 22:30:41 10° NW 22:33:11 20° N 22:35:40 10° NE visible
04 Jun -1.6 00:07:21 10° NW 00:10:18 30° NNE 00:11:11 26° NE visible
04 Jun -0.4 01:43:41 10° WNW 01:43:45 10° WNW 01:43:45 10° WNW visible
04 Jun -0.7 21:37:28 10° WNW 21:40:03 21° N 21:42:37 10° NE visible
04 Jun -1.1 23:14:30 10° NW 23:17:14 24° NNE 23:19:51 11° ENE visible
